Regional Weather Roundup
Issued by NWS

Home | Current Version | Previous Version | Text Only | Print | Product List | Glossary Off
Versions: 1 2 3 4 5 6 7 8 9 10 11 12 13 14 15 16 17 18 19 20 21 22 23 24 25 26 27 28 29 30 31 32 33 34 35 36 37 38 39 40 41 42 43 44 45 46 47 48 49 50

000
ASUS43 KDTX 171901
RWRMI
MICHIGAN HOURLY REGIONAL WEATHER ROUNDUP
NATIONAL WEATHER SERVICE DETROIT/PONTIAC MI
200 PM EST FRI NOV 17 2017

NOTE: "FAIR" INDICATES FEW OR NO CLOUDS BELOW 12,000 FEET WITH NO
SIGNIFICANT WEATHER AND/OR OBSTRUCTION TO VISIBILITY.

MIZ047>049-052>055-059>063-066>070-074>076-081>083-172000-
SOUTHEAST LOWER MICHIGAN

CITY           SKY/WX    TMP DP  RH WIND       PRES   REMARKS
ADRIAN         CLOUDY    41  31  67 S16       30.06F
ALMA           CLOUDY    40  32  74 SE7G18    30.00F WCI  35
ANN ARBOR      PTSUNNY   40  30  67 SE10      30.06F WCI  33
BAD AXE        CLOUDY    38  29  69 S10       30.05F WCI  31
CARO           PTSUNNY   39  29  67 SE13      30.04F WCI  32
DETROIT CITY   CLOUDY    42  32  67 S17G23    30.09F
DETROIT        CLOUDY    41  30  65 S14       30.10F
FLINT          MOSUNNY   42  31  64 S13       30.05F
GROSSE ILE     MOSUNNY   40  31  70 S14       30.09F WCI  32
HILLSDALE      CLOUDY    37  32  81 S15G22    30.03F WCI  28
HOWELL         CLOUDY    40  31  69 S10G23    30.03F WCI  34

CITY           SKY/WX    TMP DP  RH WIND       PRES   REMARKS
JACKSON        CLOUDY    39  30  70 SE18      30.03F WCI  30
LAMBERTVILLE   CLOUDY    43  32  63 SE9       30.08F
LANSING        CLOUDY    41  31  67 S14       30.01F
LAPEER         FAIR      41  31  65 S13G20    30.05F
MASON          MOSUNNY   42  31  66 S17       30.03F
MONROE         CLOUDY    41  30  64 S9G17     30.09F
PONTIAC        CLOUDY    40  30  67 SE16      30.05F WCI  31
PORT HOPE        N/A     36  27  69 S8        30.06S WCI  30
PORT HURON     PTSUNNY   41  30  65 S10G17    30.10F
TRI CITIES     CLOUDY    40  31  70 S14       30.03F WCI  32
MIDLAND        FAIR      40  31  69 SE10      30.00F WCI  33
TROY           MOSUNNY   43  32  64 S12G18    30.09F
SAGINAW HB     MOSUNNY   39  32  75 S13       30.02F WCI  32
$$
MIZ043>046-050>051-056>058-064>065-071>073-077>080-172000-
SOUTHWEST LOWER MICHIGAN

CITY           SKY/WX    TMP DP  RH WIND       PRES   REMARKS
BATTLE CREEK   MOSUNNY   41  32  70 SE14      29.99F
BENTON HARBOR  PTSUNNY   44  32  62 SE16G26   29.92F
BIG RAPIDS     CLOUDY    38  30  71 SE21      29.93F WCI  28
COLDWATER      MOSUNNY   41  32  69 SE15G22   30.00F
FREMONT        CLOUDY    39  32  75 S13G18    29.93F WCI  31
HOLLAND        PTSUNNY   43  32  65 SE16G23   29.94F
GRAND RAPIDS   CLOUDY    41  32  70 SE15      29.95F
IONIA          FAIR      40  31  67 S14G20    29.98F WCI  33
KALAMAZOO      PTSUNNY   43  30  60 SE10G22   29.98F
LUDINGTON      CLOUDY    37  31  77 SE9       29.91F WCI  31
MARSHALL       CLOUDY    39  31  72 SE8       30.00F WCI  34
MOUNT PLEASANT CLOUDY    38  30  72 SE9       29.98F WCI  32
MUSKEGON       CLOUDY    42  31  64 SE18      29.92F
SOUTH HAVEN    MOSUNNY   45  32  60 SE12      29.93F
$$
MIZ016>042-172000-
NORTHERN LOWER MICHIGAN

CITY           SKY/WX    TMP DP  RH WIND       PRES   REMARKS
ALPENA         CLOUDY    35  28  75 S13       30.02F WCI  26
BEAVER ISLAND  CLOUDY    37  31  78 SE9G18    29.90F WCI  31
BELLAIRE       CLOUDY    38  31  75 SE12      29.93F WCI  31
CADILLAC       CLOUDY    36  30  77 SE12G18   29.92F WCI  28
CHARLEVOIX     CLOUDY    37  28  71 SE10      29.94F WCI  29
FRANKFORT      CLOUDY    41  30  65 S13G18    29.90F
GAYLORD        CLOUDY    31  26  82 SE15G21   29.92F WCI  20
GRAYLING       CLOUDY    36  27  69 SE10      29.96F WCI  28
HARBOR SPRINGS CLOUDY    35  27  73 E5        29.94F WCI  30
HOUGHTON LAKE  CLOUDY    36  27  69 S12G20    29.97F WCI  28
MANISTEE       CLOUDY    39  30  70 SE14      29.90F WCI  31
OSCODA         CLOUDY    35  26  71 S10       30.03F WCI  27
PELLSTON       CLOUDY    34  27  75 SE12      29.94F WCI  25
ROGERS CITY    CLOUDY    34  26  74 SE13G20   30.00F WCI  25
TRAVERSE CITY  CLOUDY    41  28  60 S8G16     29.92F
$$
MIZ007>008-015-172000-
EASTERN UPPER MICHIGAN

CITY           SKY/WX    TMP DP  RH WIND       PRES   REMARKS
KINROSS        CLOUDY    33  27  78 SE21      29.94F WCI  21
MACKINAC ISLAN CLOUDY    34  26  72 SE10G18   29.95F WCI  26
NEWBERRY       CLOUDY    31  30  94 SE15G23   29.87F WCI  21
S. S. MARIE    CLOUDY    35  27  72 SE18G29   29.96F WCI  24
MUNISING         N/A     38  37  97 S16G24    29.74F WCI  29
$$
MIZ004>006-011>014-085-172000-
CENTRAL UPPER MICHIGAN

CITY           SKY/WX    TMP DP  RH WIND       PRES   REMARKS
MANISTIQUE     CLOUDY    38  33  81 SE17G25   29.85F WCI  28
ESCANABA       CLOUDY    43  37  79 S16G29    29.78F
MENOMINEE      CLOUDY    42  35  76 S18G24    29.79F
SAWYER-GWINN   LGT RAIN  36  36 100 S24G30    29.72F WCI  24
$$
MIZ001>003-009>011-084-172000-
WESTERN UPPER MICHIGAN

CITY           SKY/WX    TMP DP  RH WIND       PRES   REMARKS
IRON MOUNTAIN  CLOUDY    37  31  78 S14       29.72F WCI  28
HOUGHTON       LGT SNOW  34  31  88 SW8       29.68F FOG     WCI  27
COPPER HARBOR    N/A     37  35  92 SW15G25   29.68F WCI  28
IRONWOOD       LGT SNOW N/A N/A N/A SW6       29.66F
$$

ABBREVIATIONS USED IN REMARKS
   TC - TEMPERATURE IN CELSIUS
  WCI - WIND CHILL INDEX
   HX - HEAT INDEX
  VSB - VISIBILITY





USA.gov is the U.S. government's official web portal to all federal, state and local government web resources and services.